Location: Newark
(48.6461°N, 4.3644°W)
Time: 05:58:00
(UTC+00:00)

Tiros 1 - Visible Passes

Search period start: 22 January 2020 00:00
Search period end: 01 February 2020 00:00
Orbit: 630 x 664 km, 48.4° (Epoch: 21 January)

Date Brightness Start Highest point End Pass type
(mag) Time Alt. Az. Time Alt. Az. Time Alt. Az.
22 Jan 7.4 18:08:42 10° W 18:13:27 72° SSW 18:17:53 12° ESE visible
22 Jan 8.7 19:51:08 10° W 19:55:16 29° SW 19:55:35 29° SSW visible
23 Jan 7.9 18:34:48 10° W 18:39:25 50° SSW 18:43:21 14° SE visible
23 Jan 9.6 20:17:59 10° W 20:20:53 16° SW 20:21:03 16° SW visible
24 Jan 8.8 19:01:03 10° W 19:05:14 31° SSW 19:08:59 12° SSE visible
25 Jan 8.0 17:44:44 10° W 17:49:23 52° SSW 17:54:02 10° SE visible
25 Jan 9.7 19:27:47 10° W 19:30:52 17° SW 19:33:58 10° S visible
26 Jan 8.9 18:10:58 10° W 18:15:12 32° SSW 18:19:28 10° SSE visible
27 Jan 9.8 18:37:37 10° W 18:40:52 18° SW 18:44:08 10° S visible
29 Jan 9.9 17:47:27 10° W 17:50:51 19° SW 17:54:16 10° S visible
